Tracking 30400 objects as of 13-May-2025
HD Live streaming from Space Station
objects crossing your sky now

QIANFAN-77

Track QIANFAN-77 now!
10-day predictions
QIANFAN-77 is classified as:


NORAD ID: 63163
Int'l Code: 2025-046E
Perigee: 903.3 km
Apogee: 926.5 km
Inclination: 89.0 °
Period: 103.2 minutes
Semi major axis: 7285 km
RCS: Unknown
Launch date: March 11, 2025
Source: People's Republic of China (PRC)
Launch site: Wenchang Satellite Launch Center (WSC)
Your satellite tracking list
Your tracking list is empty




NASA's NSSDC Master Catalog

Two Line Element Set (TLE):
1 63163U 25046E   25133.59241083  .00000193  00000-0  13082-3 0  9992
2 63163  88.9830 341.8214 0015889  33.3038 326.9135 13.95976716 18711
Source of the keplerian elements: AFSPC